Theta_e
313 312 313 313 312 314 313 313 314 314 315 313 313 314 315 317 318 322 325 324 325 323 322 325 329 330 328 323 319 316 319 324 325 327 325 319 318 321 323 328 328 330 328 329 330
313 313 312 313 312 313 313 311 313 313 312 311 310 313 315 318 319 320 321 323 324 324 324 326 328 327 323 323 321 322 322 322 320 321 323 321 319 316 327 329 331 332 331 329 327
314 313 313 312 312 312 313 313 313 314 311 310 311 313 316 319 316 316 315 319 325 324 324 324 328 326 326 324 323 321 324 319 320 322 321 323 322 318 323 329 328 331 330 327 326
314 313 313 311 312 311 312 312 313 313 311 311 312 313 318 318 302 319 319 319 321 323 321 325 324 328 326 329 323 327 326 322 325 323 324 326 321 324 318 325 320 324 328 328 327
315 314 313 312 310 311 311 311 313 314 310 310 312 314 317 316 314 320 317 320 320 323 321 323 326 325 328 325 324 327 326 326 326 325 324 323 325 324 318 317 318 328 329 328 328
315 314 312 312 311 310 310 311 313 314 311 310 311 315 316 312 311 312 313 315 321 323 319 322 323 323 325 324 325 324 325 326 326 327 325 326 325 322 321 315 326 329 329 328 329
315 315 313 311 311 310 310 309 312 313 311 311 310 314 315 312 316 318 315 319 324 323 320 320 322 325 322 324 322 325 328 326 325 325 326 323 326 326 322 314 322 329 329 329 328
315 315 314 312 311 310 309 308 309 310 310 312 311 314 311 312 311 317 317 320 323 319 319 320 321 321 322 321 324 328 327 331 327 326 324 324 327 324 320 317 316 326 327 329 328
315 314 314 313 311 310 309 309 307 310 312 311 313 312 309 312 313 314 315 319 322 321 319 321 321 322 322 326 328 327 329 329 328 326 323 325 326 322 322 321 319 318 327 328 329
316 315 313 313 311 310 309 308 307 311 311 311 312 313 310 312 313 314 315 318 317 320 321 320 320 322 323 325 324 323 329 326 329 326 324 322 322 322 320 316 320 314 324 328 328
315 315 313 313 312 310 309 309 310 310 311 309 310 308 310 313 314 316 316 317 317 319 322 322 324 324 322 323 322 320 323 324 324 325 326 326 325 323 322 321 322 319 314 327 328
312 315 314 313 312 311 308 307 306 305 309 308 308 309 312 315 313 315 316 315 315 319 319 322 322 321 322 322 324 325 325 325 325 325 326 325 326 324 324 323 323 323 315 315 325
311 314 314 313 312 311 309 306 306 306 305 306 307 309 311 311 312 314 316 316 315 315 319 319 318 316 320 323 326 327 328 327 328 327 327 328 329 327 325 323 323 323 319 311 317
311 312 315 313 312 311 308 306 306 303 297 304 308 308 310 308 310 312 315 315 316 318 316 316 314 315 319 321 321 326 323 325 328 328 334 328 332 325 327 326 323 323 323 319 313
311 312 315 313 312 310 308 306 306 302 301 302 307 307 309 307 308 312 314 315 316 315 318 317 317 316 317 317 320 322 322 324 325 327 327 329 333 328 324 325 325 322 321 320 318
308 312 314 313 311 310 307 306 302 302 301 299 307 309 311 307 309 312 315 313 313 315 314 313 310 314 316 315 316 320 323 325 325 325 325 324 330 328 325 324 324 323 321 319 316
306 309 310 313 311 308 306 305 302 303 298 306 307 309 309 309 311 310 313 315 317 317 315 312 313 311 313 319 318 321 322 324 327 326 330 323 327 327 322 321 322 324 323 320 316
305 307 309 313 309 307 305 306 304 297 298 304 307 307 307 308 308 310 310 311 311 312 312 313 314 313 311 315 319 322 322 325 329 328 325 320 330 327 322 321 321 321 322 322 320
304 307 306 309 307 306 304 306 302 300 299 308 307 307 307 307 306 310 309 308 308 310 311 312 312 311 312 314 316 319 322 320 324 313 321 320 316 314 316 319 320 321 320 318 319
304 306 306 307 306 305 304 305 302 299 306 306 303 306 306 308 306 309 311 307 309 308 308 314 315 312 313 313 313 318 318 321 322 324 326 320 319 320 318 317 319 316 318 319 319
303 303 304 306 306 305 306 306 298 299 306 305 305 306 306 307 307 309 308 307 308 309 309 310 315 310 313 315 319 318 321 321 322 323 321 320 318 312 317 317 316 315 314 312 313
298 304 301 303 305 304 306 302 300 304 303 303 303 302 306 306 310 307 308 306 308 309 311 309 314 315 314 312 311 316 319 320 325 324 320 314 320 311 305 306 305 306 306 306 305
299 300 303 302 306 306 305 303 303 305 304 303 305 305 306 308 309 309 308 309 308 308 310 311 314 315 314 314 311 315 317 319 320 317 322 324 323 309 303 302 302 304 305 304 304
299 302 305 304 304 305 306 304 305 304 302 302 303 304 306 309 305 309 310 309 308 310 312 310 314 311 311 310 311 315 316 317 318 322 322 321 321 317 315 308 305 304 304 303 302
297 302 300 305 303 305 304 303 305 305 302 302 303 306 306 308 306 308 309 307 306 310 312 314 313 311 314 314 309 313 312 315 319 319 321 319 319 318 317 317 314 303 304 303 302
298 300 300 303 302 305 305 303 304 302 302 303 305 305 301 307 304 306 307 305 305 308 310 311 312 308 308 308 309 311 312 312 316 317 318 319 319 316 310 312 314 312 303 303 302
295 295 300 304 303 305 305 303 303 302 301 301 303 303 301 301 301 302 302 302 304 307 307 310 310 310 310 309 313 315 313 313 313 315 315 318 316 315 312 308 308 309 305 303 303
Wind_Speed
27 25 23 20 21 20 19 16 14 14 11 9 10 9 7 4 4 9 8 8 13 5 3 4 4 5 5 4 6 2 2 3 3 2 2 7 8 5 2 6 2 2 5 3 31
30 29 26 23 24 22 20 19 17 16 13 10 8 8 6 4 4 9 11 11 11 13 6 4 3 4 4 2 3 4 4 9 5 2 2 4 6 8 2 2 3 2 2 20 36
35 31 29 26 23 24 21 21 19 16 13 12 9 8 7 6 1 7 12 18 16 12 12 8 5 3 4 2 3 5 5 5 8 7 4 4 6 7 7 4 7 11 9 19 25
39 35 31 28 27 26 26 22 21 19 14 11 10 9 9 7 7 5 6 14 21 11 11 9 4 5 5 6 4 3 6 5 4 6 5 2 6 9 4 8 9 9 12 22 19
41 38 34 31 28 26 25 25 23 20 16 13 12 11 9 2 7 8 3 1 19 16 15 5 4 4 6 4 6 5 4 5 5 1 4 5 5 4 9 14 8 7 11 18 21
44 41 38 33 30 29 26 25 21 20 18 15 13 14 4 6 5 11 9 3 16 16 10 9 7 5 3 4 5 5 7 5 7 7 6 8 9 4 8 5 4 8 14 18 20
46 44 41 37 33 29 28 27 23 20 18 16 14 13 3 11 4 0 6 5 16 20 9 11 4 5 7 2 3 2 2 5 7 4 6 3 13 11 14 4 9 11 12 13 21
48 47 44 39 35 31 28 27 24 23 19 16 14 10 6 9 18 7 3 6 11 12 7 10 6 4 1 1 2 3 2 12 8 10 5 7 20 8 11 6 10 11 9 13 16
51 49 46 42 38 33 28 26 22 22 20 17 12 7 6 6 8 18 8 8 12 10 10 6 6 4 2 4 3 7 13 17 7 12 5 11 7 12 10 8 15 9 12 14 16
55 52 49 46 41 36 30 25 21 19 17 16 6 4 4 5 9 12 14 11 5 8 3 4 3 5 7 10 15 5 10 9 12 6 10 10 14 17 5 9 13 9 10 12 14
49 58 52 49 45 40 34 24 9 3 15 5 9 4 4 5 9 7 10 11 5 4 7 5 8 17 20 22 11 6 9 12 6 8 11 19 19 20 17 12 15 11 12 13 15
49 56 58 53 48 46 43 10 22 10 10 3 2 1 2 8 6 7 20 7 6 9 6 4 20 10 5 9 15 16 15 14 8 9 13 14 22 22 18 19 19 18 14 16 15
49 51 61 55 51 49 43 35 33 31 6 6 4 6 4 4 5 13 14 5 9 10 11 16 1 13 12 10 13 14 16 17 13 4 12 1 20 14 14 19 17 20 15 15 18
48 54 56 57 52 46 36 37 34 11 5 5 10 7 6 7 3 9 20 5 4 15 12 9 12 14 5 17 13 15 13 12 11 10 10 14 19 16 20 21 18 24 19 18 17
40 55 57 68 44 32 44 40 35 4 4 7 8 9 11 8 7 6 8 3 9 7 5 6 6 10 19 19 7 14 6 12 18 15 17 14 8 15 14 18 17 21 20 20 21
45 54 60 66 51 54 50 44 21 4 8 7 7 13 15 9 4 6 9 3 1 6 4 4 2 3 5 6 15 4 5 7 13 13 10 14 9 9 14 17 8 18 20 19 20
40 39 47 57 28 59 58 23 7 7 3 10 11 15 18 16 9 7 13 12 8 9 11 2 9 2 3 2 2 10 11 10 5 4 9 8 13 23 8 7 11 17 17 18 20
33 32 34 44 53 64 43 14 9 10 9 5 12 19 10 12 10 9 12 14 18 6 5 13 7 11 8 18 4 13 17 5 10 9 14 2 11 8 11 19 17 14 13 14 18
29 32 17 18 65 62 18 18 13 17 11 14 17 20 10 10 7 10 15 16 15 20 13 11 12 2 2 2 14 8 14 17 10 1 2 4 8 6 10 13 12 17 14 18 16
30 17 15 22 59 45 19 16 5 9 17 20 7 12 15 23 9 16 19 14 11 25 12 3 3 2 5 3 4 15 5 5 7 8 8 8 9 11 5 9 14 14 17 20 16
12 4 13 30 44 19 23 16 6 8 22 9 8 11 13 22 14 18 13 3 20 17 21 4 4 1 2 9 15 4 8 5 3 5 8 17 13 6 19 20 11 11 14 9 9
3 5 22 37 9 12 23 9 11 17 4 4 6 6 14 21 13 17 14 8 11 14 22 18 3 7 10 1 3 9 8 14 7 12 6 3 17 3 9 6 6 14 13 8 8
4 2 24 29 11 15 16 2 6 20 8 3 5 4 5 15 7 14 16 7 11 16 15 12 6 5 2 3 4 8 13 12 18 1 12 9 16 4 6 8 8 10 12 9 5
3 4 6 10 6 18 18 8 9 7 3 5 7 7 10 13 4 13 12 4 7 9 10 19 6 9 13 2 1 8 12 17 18 10 17 19 28 19 14 10 10 7 10 7 7
1 2 3 9 11 20 18 16 20 9 2 5 4 14 13 7 4 4 5 3 3 9 12 9 5 5 9 15 6 8 12 21 20 28 17 34 30 26 23 20 17 9 7 7 8
3 2 1 10 14 22 22 21 26 5 8 10 12 14 5 11 7 8 10 5 5 3 6 4 4 5 12 9 14 19 18 20 27 33 25 36 34 23 6 9 15 23 9 10 10
3 3 1 14 17 15 15 22 24 13 7 10 16 13 7 8 8 8 5 6 8 8 5 6 5 4 7 3 8 13 23 22 27 28 26 30 38 23 19 13 15 17 16 14 12
Wind_Direction
229 226 224 216 224 218 223 220 213 211 218 215 220 225 230 229 198 199 219 218 223 241 201 209 214 136 77 66 28 15 75 145 239 187 292 356 1 350 2 121 189 188 168 227 163
226 222 224 215 216 218 219 214 213 212 218 215 211 214 218 209 187 223 219 219 230 227 222 173 141 114 60 63 48 102 192 187 146 132 344 291 348 325 301 158 254 266 283 146 161
226 221 219 219 212 214 215 213 212 207 211 212 202 200 194 159 28 239 235 221 213 216 229 211 162 119 105 121 185 154 198 207 184 146 164 306 345 331 329 245 227 203 173 161 164
224 222 217 218 210 211 213 216 214 207 204 203 200 190 164 170 217 145 50 224 212 208 199 154 130 152 150 173 178 180 258 213 287 155 144 300 303 329 257 266 339 281 167 163 174
221 222 220 216 213 210 211 212 211 207 200 199 195 173 157 205 251 196 294 69 196 194 186 150 138 132 184 188 147 196 202 229 268 289 261 146 236 220 270 283 286 160 166 185 189
219 219 218 216 214 209 208 208 205 199 192 193 188 174 177 198 230 236 262 231 184 186 192 166 175 192 157 187 195 199 206 213 228 227 252 242 248 109 264 315 261 181 199 194 198
217 216 216 213 211 207 204 205 201 195 190 190 191 185 215 227 205 209 198 170 184 189 168 202 191 182 138 143 234 256 216 255 232 199 242 124 257 219 254 223 242 213 215 217 211
215 213 214 211 209 205 203 202 206 205 193 188 188 178 231 242 231 224 145 155 172 184 176 195 202 113 177 140 69 170 217 245 197 190 208 181 259 195 212 197 252 237 223 217 221
213 213 211 209 206 200 197 195 196 190 183 182 171 190 237 206 210 220 197 150 146 166 184 138 170 176 103 208 212 203 240 229 251 196 142 195 262 239 233 222 250 237 221 219 228
209 210 209 205 203 196 190 185 184 176 177 171 193 168 213 208 182 202 198 157 122 129 135 158 197 205 204 202 223 237 227 251 242 194 201 223 251 265 243 196 230 231 236 226 224
219 204 206 201 198 190 175 157 148 194 187 189 174 213 129 151 148 151 154 136 119 116 183 188 207 221 218 220 231 269 220 235 237 217 203 224 248 253 242 237 253 231 229 220 222
220 199 199 197 189 180 171 184 177 154 179 231 11 237 159 156 156 168 159 147 163 184 160 183 230 223 226 228 230 242 255 255 260 213 215 237 252 247 244 232 231 234 223 226 225
218 212 191 190 184 173 180 185 172 145 129 227 182 191 193 168 183 177 173 139 168 192 196 220 282 199 216 242 238 236 230 236 249 269 222 297 259 247 246 237 239 248 237 219 221
218 212 191 185 176 177 188 179 167 158 93 207 190 237 178 153 235 169 184 146 160 198 204 238 242 262 217 233 230 251 225 256 276 256 252 187 263 239 241 236 225 241 230 229 226
212 210 198 181 177 175 179 174 174 158 173 186 171 174 154 165 132 203 191 75 175 182 166 210 183 217 243 236 197 264 216 239 257 280 266 239 260 260 218 241 222 230 227 220 221
224 211 204 192 181 178 166 169 155 113 216 166 141 168 160 176 155 133 170 109 94 177 223 236 318 214 239 205 221 302 226 256 251 246 249 232 241 224 227 238 230 233 228 219 220
214 213 199 204 179 165 160 155 148 184 236 169 177 173 171 182 161 154 182 175 179 190 213 69 239 211 240 188 194 198 227 245 244 209 252 215 218 244 247 244 216 232 228 221 219
206 210 207 189 160 159 158 166 171 189 187 135 150 162 169 145 198 168 153 201 215 205 169 214 251 186 181 215 203 213 215 228 248 233 242 125 236 252 221 240 234 238 234 229 223
198 197 220 191 158 155 162 186 173 173 163 140 128 161 175 187 148 160 189 199 203 205 190 198 236 186 286 137 191 194 220 236 276 342 270 240 284 274 239 246 241 239 237 233 229
199 184 196 179 161 156 166 181 169 182 129 141 136 174 178 179 147 186 179 205 207 200 203 224 264 189 159 126 241 223 148 188 199 257 254 250 253 242 310 258 246 250 247 242 229
188 143 171 156 164 168 174 179 134 213 144 145 144 156 177 179 181 187 193 252 191 183 204 145 225 135 114 209 199 169 211 208 227 211 246 261 265 213 218 240 264 268 267 272 238
123 166 168 167 166 185 175 145 138 175 100 113 101 111 168 171 172 184 201 195 185 157 191 202 200 232 205 6 308 247 231 213 218 216 224 267 256 250 249 271 265 268 263 247 232
125 98 172 166 184 184 166 159 123 162 146 149 116 137 151 163 158 184 188 196 164 175 177 166 208 235 259 238 213 223 216 216 226 331 221 232 255 192 269 271 248 273 287 266 247
126 151 168 177 191 171 159 166 137 145 82 97 111 118 115 161 11 176 166 154 166 177 161 165 187 213 222 157 134 206 214 224 237 252 256 249 261 282 283 299 298 274 284 291 226
99 164 284 168 171 175 169 162 153 156 127 135 17 168 149 142 88 150 112 115 170 195 194 187 214 203 251 278 310 267 250 217 213 232 230 252 246 251 253 260 276 276 280 270 259
125 175 163 152 145 163 182 179 166 115 149 171 158 153 101 154 158 161 142 170 178 129 153 167 223 187 271 244 234 269 263 243 225 230 234 249 259 245 284 283 253 265 254 242 252
118 200 136 161 166 157 181 176 170 139 19 114 134 133 88 141 145 153 128 131 150 141 154 160 172 194 262 230 262 252 244 233 234 232 225 244 244 261 242 232 237 249 249 236 234